Location: Cisewo
(53.3833°N, 14.9000°E)
Time: 10:28:55
(UTC+00:00)

Nimbus 7 Rocket - Pass Details

Date: 18 April 2021
Orbit: 922 x 965 km, 99.4° (Epoch: 14 May)

Event Time Altitude Azimuth Distance (km) Brightness Sun altitude
Rises 22:27:56 0° 18° (NNE) 3,594 8.5 -25.1°
Reaches altitude 10° 22:30:25 10° 22° (NNE) 2,642 7.5 -25.2°
Maximum altitude 22:36:15 60° 102° (ESE) 1,051 4.5 -25.3°
Enters shadow 22:36:57 56° 134° (SE) 1,090 4.4 -25.3°
